EW4694 Weather Reports


Display with metric or nautical units.
time (UTC)temp
F
wind
direction
speed
MPH
gust
MPH
rain 1hr
in
rain 24hr
in
rain mn
in
humidity
%
barometer
mb
20260507011540 53 193 0.0 0.0 0.00 0.10 0.10 1 1013.1
20260507010039 53 193 0.0 0.0 0.00 0.10 0.10 1 1013.1
20260507004529 53 193 0.0 0.0 0.01 0.10 0.10 1 1012.9
20260507003025 53 193 0.0 0.0 0.01 0.10 0.10 1 1012.7
20260507001520 54 190 0.0 0.0 0.01 0.10 0.10 1 1012.5
20260507000059 54 211 0.0 0.0 0.01 0.10 0.10 1 1012.4
20260506234602 54 217 0.0 0.0 0.00 0.09 0.09 1 1012.9
20260506233035 54 217 0.0 0.0 0.00 0.09 0.09 1 1012.6
20260506231535 54 217 0.0 0.0 0.00 0.09 0.09 1 1012.7
20260506230008 54 217 0.0 0.0 0.00 0.09 0.09 1 1012.8
20260506224516 54 217 0.0 0.0 0.00 0.09 0.09 1 1012.8
20260506223043 54 217 0.0 0.0 0.00 0.09 0.09 1 1012.3
20260506221538 54 217 0.0 0.0 0.00 0.09 0.09 1 1012.2
20260506220030 54 275 0.0 0.0 0.02 0.09 0.09 1 1012.2
20260506214513 54 297 0.0 0.0 0.02 0.09 0.09 1 1012.0
20260506213058 54 296 0.0 0.0 0.02 0.09 0.09 1 1011.9
20260506211556 55 295 0.0 0.0 0.02 0.09 0.09 1 1012.0
20260506210049 55 294 0.0 0.0 0.00 0.07 0.07 6 1011.5
20260506204545 55 294 0.0 0.0 0.00 0.07 0.07 4 1011.4
20260506203040 55 293 0.0 0.0 0.00 0.07 0.07 3 1011.3
20260506201536 55 324 0.0 0.0 0.00 0.07 0.07 1 1011.1
20260506200032 55 297 0.0 0.0 0.00 0.07 0.07 1 1011.0
20260506194534 56 323 0.0 0.0 0.00 0.07 0.07 1 1010.7
20260506193012 56 304 0.0 0.0 0.00 0.07 0.07 1 1010.6
20260506191507 56 290 0.0 0.0 0.00 0.07 0.07 1 1010.6
20260506190002 57 298 0.0 0.0 0.00 0.07 0.07 1 1010.4
20260506184558 57 295 0.0 0.0 0.00 0.07 0.07 1 1010.3
20260506183100 58 283 0.0 0.0 0.00 0.07 0.07 1 1010.0
20260506181601 58 277 0.0 0.0 0.00 0.07 0.07 1 1010.1
20260506180048 58 304 0.0 0.0 0.00 0.07 0.07 1 1010.1
20260506174541 58 300 0.0 0.0 0.00 0.07 0.07 1 1010.1
20260506173047 59 314 0.0 0.0 0.00 0.07 0.07 1 1010.1
20260506171520 60 292 0.0 0.0 0.00 0.07 0.07 1 1009.9
20260506170011 61 296 0.0 0.0 0.00 0.07 0.07 1 1009.7
20260506164553 61 258 0.0 0.0 0.01 0.07 0.07 1 1009.7
20260506163050 60 274 0.0 0.0 0.01 0.07 0.07 1 1009.5
20260506161545 60 282 0.0 0.0 0.02 0.07 0.07 1 1009.2
20260506160046 60 289 0.0 0.0 0.02 0.07 0.07 1 1009.3
20260506154537 60 284 0.0 0.0 0.01 0.06 0.06 1 1009.0
20260506153033 60 294 0.0 0.0 0.01 0.06 0.06 1 1008.8
20260506151530 60 293 0.0 0.0 0.00 0.05 0.05 1 1008.7
20260506150025 60 274 0.0 0.0 0.00 0.05 0.05 1 1008.5
20260506144502 59 248 0.0 0.0 0.00 0.05 0.05 1 1008.2
20260506143100 59 273 0.0 1.0 0.00 0.05 0.05 1 1008.1
20260506141539 59 341 0.0 0.0 0.00 0.05 0.05 1 1007.8
20260506140037 59 289 0.0 0.0 0.00 0.05 0.05 1 1007.6
20260506134520 58 278 0.0 0.0 0.01 0.05 0.05 1 1007.8
20260506133010 58 202 0.0 0.0 0.01 0.05 0.05 1 1007.8
20260506131559 58 122 0.0 0.0 0.01 0.05 0.05 1 1007.8
20260506130052 57 115 0.0 0.0 0.01 0.05 0.05 1 1007.6
20260506124522 57 113 0.0 0.0 0.00 0.04 0.04 1 1007.4
20260506123018 56 113 0.0 0.0 0.01 0.04 0.04 1 1007.6
20260506121657 56 132 0.0 0.0 0.01 0.04 0.04 1 1007.5
20260506120053 56 132 0.0 0.0 0.01 0.04 0.04 1 1007.4
20260506114536 56 132 0.0 0.0 0.01 0.04 0.04 1 1007.3
20260506113032 0 0.0 0.0 0.00 0.03 0.03 1007.2
20260506111630 0 0.0 0.0 0.00 0.03 0.03 1007.1
20260506110024 0 0.0 0.0 0.00 0.03 0.03 1007.1
20260506104519 0 0.0 0.0 0.00 0.03 0.03 1007.0
20260506103022 0 0.0 0.0 0.00 0.03 0.03 1006.9
20260506101509 0 0.0 0.0 0.00 0.03 0.03 1007.2
20260506100006 0 0.0 0.0 0.00 0.03 0.03 1007.2
20260506094601 0 0.0 0.0 0.01 0.03 0.03 1007.7
20260506093041 0 0.0 0.0 0.02 0.03 0.03 1008.0
20260506091520 0 0.0 0.0 0.03 0.03 0.03 1007.9
20260506090015 56 136 0.0 0.0 0.03 0.03 0.03 1 1008.1
20260506084600 56 136 0.0 0.0 0.02 0.02 0.02 1 1007.4
20260506083100 56 136 0.0 0.0 0.01 0.01 0.01 1 1007.7
20260506081555 56 136 0.0 0.0 0.00 0.00 0.00 1 1007.7
20260506073039 56 136 0.0 0.0 0.00 0.00 0.00 1 1007.3
20260506071538 56 136 0.0 0.0 0.00 0.00 0.00 1 1007.0
20260506061542 57 136 0.0 0.0 0.00 0.00 0.00 1 1007.7
20260506050150 58 136 0.0 0.0 0.00 0.00 0.00 14 1008.4
20260506044532 58 136 0.0 0.0 0.00 0.00 0.00 17 1009.0
20260506043030 58 136 0.0 0.0 0.00 0.00 0.00 20 1008.8
20260506041514 59 136 0.0 0.0 0.00 0.00 0.00 19 1008.3
20260506040009 59 136 0.0 0.0 0.00 0.00 0.00 23 1008.6
20260506034547 59 136 0.0 0.0 0.00 0.00 0.00 27 1008.7
20260506033043 59 136 0.0 0.0 0.00 0.00 0.00 25 1008.4
20260506031521 59 136 0.0 0.0 0.00 0.00 0.00 20 1008.8
20260506030027 59 136 0.0 0.0 0.00 0.00 0.00 21 1008.5
20260506024600 60 136 0.0 0.0 0.00 0.00 0.00 28 1008.7
20260506023050 60 136 0.0 0.0 0.00 0.00 0.00 36 1008.7
20260506021535 61 136 0.0 0.0 0.00 0.00 0.00 40 1008.5
20260506020030 61 136 0.0 0.0 0.00 0.00 0.00 41 1008.8
20260506014532 62 136 0.0 0.0 0.00 0.00 0.00 56 1009.1
20260506013022 63 136 0.0 0.0 0.00 0.00 0.00 56 1009.2